Location: East Guldeford
(50.9500°N, 0.7500°E)
Time: 18:24:56
(UTC+00:00)

Cosmos 1503 Rocket - Pass Details

Date: 12 May 2021
Orbit: 752 x 791 km, 74.0° (Epoch: 15 June)

Event Time Altitude Azimuth Distance (km) Brightness Sun altitude
Rises 20:07:35 0° 196° (SSW) 3,192 7.0 -4.9°
Reaches altitude 10° 20:09:56 10° 195° (SSW) 2,274 6.2 -5.2°
Maximum altitude 20:15:04 73° 111° (ESE) 795 4.0 -5.9°
Drops below altitude 10° 20:20:17 10° 28° (NNE) 2,310 6.7 -6.5°
Sets 20:22:41 0° 26° (NNE) 3,246 7.4 -6.8°
